Satellite: NOAA-12 Catalog number: 21263 Epoch time: 14057.47990071 Element set: 182 Inclination: 098.6746 deg RA of node: 085.5462 deg Eccentricity: 0.0013824 Arg of perigee: 195.6188 deg Mean anomaly: 302.0162 deg Mean motion: 14.25630041 rev/day Decay rate: 8.7e-07 rev/day^2 Epoch rev: 18478 Checksum: 302
Satellite: MET-3/5 Catalog number: 21655 Epoch time: 14058.50012811 Element set: 913 Inclination: 082.5525 deg RA of node: 073.9182 deg Eccentricity: 0.0012929 Arg of perigee: 206.2013 deg Mean anomaly: 153.8456 deg Mean motion: 13.17057670 rev/day Decay rate: -3.18e-06 rev/day^2 Epoch rev: 8354 Checksum: 282
Satellite: MET-2/21 Catalog number: 22782 Epoch time: 14058.73570296 Element set: 989 Inclination: 082.5457 deg RA of node: 260.1451 deg Eccentricity: 0.0021955 Arg of perigee: 209.3542 deg Mean anomaly: 202.8119 deg Mean motion: 13.83726201 rev/day Decay rate: 4.2e-07 rev/day^2 Epoch rev: 3498 Checksum: 303
Satellite: OKEAN-4 Catalog number: 23317 Epoch time: 14058.34515861 Element set: 467 Inclination: 082.5419 deg RA of node: 170.8823 deg Eccentricity: 0.0022258 Arg of perigee: 103.2874 deg Mean anomaly: 320.9877 deg Mean motion: 14.85153845 rev/day Decay rate: 3.201e-05 rev/day^2 Epoch rev: 4680 Checksum: 303
Satellite: NOAA-14 Catalog number: 23455 Epoch time: 14057.47004766 Element set: 665 Inclination: 098.7826 deg RA of node: 142.8534 deg Eccentricity: 0.0009120 Arg of perigee: 001.2032 deg Mean anomaly: 056.9820 deg Mean motion: 14.13951999 rev/day Decay rate: -1.0e-08 rev/day^2 Epoch rev: 98830 Checksum: 302
Satellite: NOAA-15 Catalog number: 25338 Epoch time: 14057.50608021 Element set: 93 Inclination: 098.7471 deg RA of node: 051.6194 deg Eccentricity: 0.0011789 Arg of perigee: 109.1478 deg Mean anomaly: 051.8657 deg Mean motion: 14.25351849 rev/day Decay rate: 2.80e-06 rev/day^2 Epoch rev: 82107 Checksum: 308
Satellite: RESURS Catalog number: 25394 Epoch time: 14058.84516809 Element set: 598 Inclination: 098.4002 deg RA of node: 027.8991 deg Eccentricity: 0.0001265 Arg of perigee: 170.3234 deg Mean anomaly: 219.3573 deg Mean motion: 14.24372023 rev/day Decay rate: 1.03e-06 rev/day^2 Epoch rev: 81275 Checksum: 291
Satellite: FENGYUN1 Catalog number: 25730 Epoch time: 14057.90844646 Element set: 89 Inclination: 098.9045 deg RA of node: 019.7593 deg Eccentricity: 0.0028789 Arg of perigee: 058.2218 deg Mean anomaly: 332.3803 deg Mean motion: 14.11438746 rev/day Decay rate: 4.701e-05 rev/day^2 Epoch rev: 76196 Checksum: 332
Satellite: OKEAN-0 Catalog number: 25860 Epoch time: 14058.82605669 Element set: 186 Inclination: 098.0300 deg RA of node: 023.4427 deg Eccentricity: 0.0001946 Arg of perigee: 089.1926 deg Mean anomaly: 297.0199 deg Mean motion: 14.75013112 rev/day Decay rate: 1.481e-05 rev/day^2 Epoch rev: 78603 Checksum: 302
Satellite: NOAA-16 Catalog number: 26536 Epoch time: 14057.41957016 Element set: 580 Inclination: 099.0042 deg RA of node: 117.2314 deg Eccentricity: 0.0011450 Arg of perigee: 136.7099 deg Mean anomaly: 290.8862 deg Mean motion: 14.12993192 rev/day Decay rate: 2.56e-06 rev/day^2 Epoch rev: 69247 Checksum: 308
Satellite: NOAA-17 Catalog number: 27453 Epoch time: 14057.53374701 Element set: 486 Inclination: 098.3128 deg RA of node: 063.0863 deg Eccentricity: 0.0012738 Arg of perigee: 136.4184 deg Mean anomaly: 333.4750 deg Mean motion: 14.24692782 rev/day Decay rate: 2.24e-06 rev/day^2 Epoch rev: 60693 Checksum: 311
Satellite: NOAA-18 Catalog number: 28654 Epoch time: 14057.50482206 Element set: 967 Inclination: 099.1372 deg RA of node: 034.8540 deg Eccentricity: 0.0013883 Arg of perigee: 211.0987 deg Mean anomaly: 298.3736 deg Mean motion: 14.11952873 rev/day Decay rate: 3.73e-06 rev/day^2 Epoch rev: 45194 Checksum: 331
Satellite: NOAA-19 Catalog number: 33591 Epoch time: 14057.50539580 Element set: 139 Inclination: 098.9347 deg RA of node: 002.9411 deg Eccentricity: 0.0015106 Arg of perigee: 073.7203 deg Mean anomaly: 053.3130 deg Mean motion: 14.11648798 rev/day Decay rate: 2.24e-06 rev/day^2 Epoch rev: 26037 Checksum: 288
/EX SB KEPS @ AMSAT $ORB14058.M Orbital Elements 14058.MISC
HR AMSAT ORBITAL ELEMENTS FOR MANNED AND MISCELLANEOUS SATELLITES FROM WA5QGD FORT WORTH,TX February 27, 2014 BID: ORB14058.M TO ALL RADIO AMATEURS BT
Satellite: HUBBLE Catalog number: 20580 Epoch time: 14056.20236285 Element set: 445 Inclination: 028.4710 deg RA of node: 052.9924 deg Eccentricity: 0.0003236 Arg of perigee: 166.6181 deg Mean anomaly: 284.9809 deg Mean motion: 15.04746348 rev/day Decay rate: 3.552e-05 rev/day^2 Epoch rev: 10782 Checksum: 291
Satellite: ISS Catalog number: 25544 Epoch time: 14058.93342634 Element set: 776 Inclination: 051.6501 deg RA of node: 281.1813 deg Eccentricity: 0.0003895 Arg of perigee: 183.0253 deg Mean anomaly: 321.7833 deg Mean motion: 15.50810153 rev/day Decay rate: 1.7599e-04 rev/day^2 Epoch rev: 87437 Checksum: 304
Satellite: CO-58 Catalog number: 28895 Epoch time: 14057.52515965 Element set: 705 Inclination: 097.8443 deg RA of node: 265.0916 deg Eccentricity: 0.0017296 Arg of perigee: 004.4531 deg Mean anomaly: 355.6821 deg Mean motion: 14.61599529 rev/day Decay rate: 1.425e-05 rev/day^2 Epoch rev: 44408 Checksum: 340
Satellite: FALCON Catalog number: 30776 Epoch time: 14058.15062757 Element set: 811 Inclination: 035.4298 deg RA of node: 074.0625 deg Eccentricity: 0.0001059 Arg of perigee: 267.4448 deg Mean anomaly: 165.8305 deg Mean motion: 15.14020561 rev/day Decay rate: 1.5074e-04 rev/day^2 Epoch rev: 38403 Checksum: 284
Satellite: MAST Catalog number: 31126 Epoch time: 14058.18532644 Element set: 983 Inclination: 097.9040 deg RA of node: 044.8899 deg Eccentricity: 0.0091821 Arg of perigee: 338.3502 deg Mean anomaly: 079.0008 deg Mean motion: 14.55015358 rev/day Decay rate: 2.400e-05 rev/day^2 Epoch rev: 36439 Checksum: 300
Satellite: CAPE1 Catalog number: 31130 Epoch time: 14058.67858972 Element set: 989 Inclination: 097.9244 deg RA of node: 041.8846 deg Eccentricity: 0.0099274 Arg of perigee: 354.1765 deg Mean anomaly: 005.8270 deg Mean motion: 14.54082142 rev/day Decay rate: 3.548e-05 rev/day^2 Epoch rev: 36389 Checksum: 343
Satellite: COMPASS Catalog number: 32787 Epoch time: 14057.78179467 Element set: 867 Inclination: 097.7172 deg RA of node: 114.4500 deg Eccentricity: 0.0014436 Arg of perigee: 180.8033 deg Mean anomaly: 179.3163 deg Mean motion: 14.86968671 rev/day Decay rate: 5.625e-05 rev/day^2 Epoch rev: 31577 Checksum: 338
Satellite: AAUSAT2 Catalog number: 32788 Epoch time: 14057.76852855 Element set: 852 Inclination: 097.7182 deg RA of node: 115.2981 deg Eccentricity: 0.0013959 Arg of perigee: 178.9974 deg Mean anomaly: 181.1273 deg Mean motion: 14.87578711 rev/day Decay rate: 7.230e-05 rev/day^2 Epoch rev: 31582 Checksum: 352
Satellite: DO-64 Catalog number: 32789 Epoch time: 14058.48746194 Element set: 890 Inclination: 097.7353 deg RA of node: 121.5143 deg Eccentricity: 0.0013406 Arg of perigee: 166.4423 deg Mean anomaly: 318.5248 deg Mean motion: 14.91465265 rev/day Decay rate: 1.4285e-04 rev/day^2 Epoch rev: 31613 Checksum: 324
Satellite: CO-66 Catalog number: 32791 Epoch time: 14057.77919801 Element set: 848 Inclination: 097.7169 deg RA of node: 113.4285 deg Eccentricity: 0.0014869 Arg of perigee: 183.4129 deg Mean anomaly: 176.6988 deg Mean motion: 14.85821725 rev/day Decay rate: 4.495e-05 rev/day^2 Epoch rev: 31565 Checksum: 371
Satellite: RS-30 Catalog number: 32953 Epoch time: 14058.76866630 Element set: 692 Inclination: 082.4985 deg RA of node: 269.2519 deg Eccentricity: 0.0019369 Arg of perigee: 035.8242 deg Mean anomaly: 324.4132 deg Mean motion: 12.43043064 rev/day Decay rate: 1.0e-07 rev/day^2 Epoch rev: 26166 Checksum: 303
Satellite: METEOR-M Catalog number: 35865 Epoch time: 14058.80407484 Element set: 300 Inclination: 098.5661 deg RA of node: 109.4577 deg Eccentricity: 0.0003313 Arg of perigee: 059.8142 deg Mean anomaly: 300.3352 deg Mean motion: 14.21909631 rev/day Decay rate: 1.6e-07 rev/day^2 Epoch rev: 23079 Checksum: 281
Satellite: RS-38 Catalog number: 35869 Epoch time: 14058.74694093 Element set: 247 Inclination: 098.5579 deg RA of node: 109.2403 deg Eccentricity: 0.0005377 Arg of perigee: 063.7011 deg Mean anomaly: 069.7249 deg Mean motion: 14.22183809 rev/day Decay rate: 8.0e-07 rev/day^2 Epoch rev: 23081 Checksum: 325
Satellite: JUGNU Catalog number: 37839 Epoch time: 14058.66860685 Element set: 570 Inclination: 019.9608 deg RA of node: 198.6740 deg Eccentricity: 0.0018817 Arg of perigee: 218.0435 deg Mean anomaly: 253.8056 deg Mean motion: 14.12255242 rev/day Decay rate: 6.10e-06 rev/day^2 Epoch rev: 12305 Checksum: 305
Satellite: SRMSAT Catalog number: 37841 Epoch time: 14057.80893021 Element set: 571 Inclination: 019.9711 deg RA of node: 220.9956 deg Eccentricity: 0.0011712 Arg of perigee: 151.5906 deg Mean anomaly: 339.3053 deg Mean motion: 14.10305522 rev/day Decay rate: 5.07e-06 rev/day^2 Epoch rev: 12275 Checksum: 271
Satellite: RAX-2 Catalog number: 37853 Epoch time: 14057.90747503 Element set: 736 Inclination: 101.7136 deg RA of node: 035.1378 deg Eccentricity: 0.0223849 Arg of perigee: 015.5256 deg Mean anomaly: 010.8928 deg Mean motion: 14.87168882 rev/day Decay rate: 2.0940e-04 rev/day^2 Epoch rev: 12625 Checksum: 314
Satellite: AUBIESAT Catalog number: 37854 Epoch time: 14058.54017146 Element set: 719 Inclination: 101.7180 deg RA of node: 037.5613 deg Eccentricity: 0.0222300 Arg of perigee: 011.4796 deg Mean anomaly: 101.3961 deg Mean motion: 14.88287954 rev/day Decay rate: 2.7069e-04 rev/day^2 Epoch rev: 12638 Checksum: 298
